Wind_Speed
5 5 6 7 8 9 9 10 10 10 11 11 11 12 12 12 12 12 12 12 12 12 12 13 13 14 14 15 16 16 17 18 18 20 22 24 26 27 28 29 29 30
4 4 4 5 6 7 8 9 11 11 11 11 11 12 12 12 13 13 14 14 14 14 14 14 15 15 15 15 16 16 17 18 18 19 20 21 22 25 28 29 30 30
4 4 3 4 5 6 7 9 9 10 11 11 11 12 12 12 13 14 14 15 16 17 17 17 17 18 18 18 18 18 18 19 19 20 21 21 21 23 24 27 29 31
4 3 3 3 3 4 5 6 6 7 9 10 10 12 13 13 14 14 15 16 16 17 17 18 19 20 21 21 21 21 21 21 21 21 22 22 22 23 24 24 26 27
3 3 3 3 3 4 4 5 6 7 7 8 9 10 11 12 14 15 16 17 18 19 19 19 20 21 22 23 23 24 24 24 24 24 25 24 23 24 25 25 26 27
6 6 6 6 7 7 8 9 10 10 11 12 12 12 13 13 14 15 16 17 19 20 22 22 23 23 24 24 24 25 25 26 27 27 28 28 27 26 26 27 28 29
10 10 10 11 11 12 12 12 13 14 14 15 16 16 17 17 17 17 18 19 19 20 21 23 24 25 26 27 27 27 27 27 28 28 29 30 30 30 30 30 30 31
11 12 13 14 15 15 16 17 17 18 18 18 19 19 20 20 21 21 21 22 22 23 23 23 24 25 26 28 29 30 31 31 31 31 32 32 32 33 33 33 34 34
12 13 14 16 17 17 18 19 19 20 21 22 22 22 22 22 23 24 24 25 25 26 27 27 28 28 29 30 31 32 34 34 35 36 37 37 37 37 36 36 36 37
15 16 17 18 19 20 21 21 22 23 24 25 25 26 26 26 27 28 29 29 30 31 31 32 33 33 34 34 35 35 37 37 38 39 40 41 41 42 41 41 40 40
17 19 20 21 23 23 24 24 25 26 26 27 28 29 30 30 31 32 33 34 36 37 38 38 39 39 40 40 41 40 41 41 41 41 41 42 43 44 44 44 44 45
19 21 22 23 25 25 26 27 27 28 29 30 30 31 32 33 34 35 36 38 39 41 43 44 45 46 46 47 47 47 46 46 45 44 44 43 44 44 44 44 45 46
22 23 25 26 27 27 28 28 29 30 31 32 33 34 34 35 37 38 39 41 42 44 45 47 48 49 51 51 51 51 50 49 49 49 48 47 46 46 45 45 45 46
25 27 28 29 30 30 30 30 30 31 32 33 35 36 36 38 39 40 41 43 44 46 47 49 50 51 52 53 52 52 51 50 50 50 50 50 49 49 48 48 47 47
28 30 31 32 33 33 32 32 32 33 33 34 35 37 38 39 41 42 44 45 46 47 49 50 51 52 52 52 52 51 51 50 49 48 48 48 49 50 50 50 50 50
30 31 33 34 35 35 34 34 34 34 35 35 36 37 39 40 42 43 45 46 47 48 49 50 51 52 52 52 51 51 50 49 48 48 47 47 48 49 51 51 50 50
31 32 34 35 35 35 35 35 35 36 37 38 38 39 40 41 43 44 45 46 47 48 49 50 50 51 51 52 52 51 50 48 48 49 49 49 49 50 52 53 52 52
32 33 34 35 35 35 35 36 38 38 39 40 41 42 42 43 44 44 45 46 47 48 49 50 51 52 52 52 53 53 51 48 47 49 51 51 52 51 53 54 54 54
32 33 34 34 34 35 37 38 39 40 41 42 42 43 43 44 45 45 46 47 48 49 51 53 54 54 53 53 53 53 52 49 48 51 53 54 55 55 54 55 55 54
32 33 33 34 36 37 38 39 39 41 41 42 42 43 44 45 46 47 48 49 49 51 53 55 56 55 53 53 53 52 50 48 48 51 53 54 56 56 56 55 55 54
31 32 34 36 37 38 39 39 40 41 41 41 42 43 44 45 47 48 49 50 50 51 53 56 56 52 49 50 49 47 45 44 44 47 50 53 56 56 55 56 56 56
32 33 35 37 37 38 39 40 41 41 41 42 42 43 45 46 47 48 49 50 51 51 52 54 53 48 44 44 43 41 40 40 42 45 47 50 52 53 52 53 53 52
33 35 36 37 38 39 40 41 41 41 41 42 43 45 46 46 47 48 48 49 51 50 49 51 50 45 42 41 39 37 37 37 38 40 42 44 46 47 46 46 46 45
34 35 36 37 38 39 40 41 41 41 42 42 43 45 46 47 47 49 49 48 48 48 46 46 47 44 40 39 37 35 33 33 34 36 38 40 41 41 40 40 40 38
35 35 36 37 39 39 40 40 41 41 42 42 43 45 46 47 47 49 50 48 45 45 43 42 43 42 38 36 35 31 28 29 31 35 37 38 39 40 40 39 40 40
35 35 36 37 38 39 39 40 40 41 42 42 43 44 45 47 47 47 48 46 43 42 41 39 39 39 36 33 31 28 25 26 30 34 37 39 40 42 43 43 41 40
Wind_Direction
45 33 25 23 23 25 25 21 19 17 16 15 13 13 14 12 10 7 4 2 358 355 352 347 343 340 337 334 333 332 328 323 315 304 291 280 273 268 264 262 261 261
64 48 29 20 17 16 16 14 12 10 9 10 9 7 5 3 1 358 356 355 353 353 352 349 346 343 339 336 332 330 328 327 327 323 317 308 297 284 276 270 265 263
75 64 43 26 18 13 13 10 3 1 1 359 358 357 356 356 356 354 351 349 347 347 347 347 346 344 342 340 337 334 330 327 325 323 322 323 320 310 300 289 280 273
73 65 54 39 26 14 8 359 349 348 348 344 342 342 342 343 343 343 342 341 340 339 339 339 339 338 338 336 336 334 332 330 328 324 320 320 321 319 317 311 303 294
54 47 39 25 13 2 351 344 340 341 340 335 333 331 330 329 328 328 328 329 331 331 332 332 331 331 330 329 329 329 329 328 327 325 321 319 318 316 316 316 313 310
11 3 0 355 350 346 342 340 339 337 336 334 332 331 329 326 323 321 319 318 320 322 323 324 325 326 326 324 323 323 323 322 322 322 320 319 318 315 315 314 311 309
354 351 349 346 343 342 339 338 336 334 332 331 331 330 329 328 326 324 321 319 317 316 316 317 318 319 320 320 320 320 320 319 318 317 316 316 315 314 313 313 310 307
342 340 340 338 338 338 337 336 335 333 332 330 329 328 327 327 326 324 323 321 320 319 318 317 316 316 316 315 315 316 316 317 317 316 314 313 312 311 311 311 309 307
335 334 335 334 333 333 333 332 332 331 330 329 328 327 326 326 324 322 321 320 319 319 318 318 317 316 315 313 312 312 312 311 312 312 311 310 309 309 308 307 306 305
329 329 330 329 328 328 328 327 327 327 327 326 325 324 323 322 322 321 320 319 318 317 317 317 316 315 314 312 311 310 309 308 307 306 306 305 305 305 305 304 302 301
324 324 324 324 323 323 323 323 323 323 323 322 321 320 320 319 319 318 318 318 317 317 316 316 315 314 312 311 310 309 308 306 305 303 301 300 299 299 299 299 298 297
320 320 320 320 319 319 320 320 320 320 319 319 318 317 317 317 317 317 316 316 315 316 316 315 314 313 312 311 310 309 307 306 304 302 300 298 296 294 293 292 291 291
318 319 319 318 318 318 318 318 318 317 317 316 316 316 316 316 315 315 315 315 314 314 313 313 312 311 311 311 310 309 308 306 304 302 300 297 295 293 290 288 286 285
318 319 319 318 317 317 316 316 315 314 314 314 314 314 314 314 314 313 313 312 312 311 311 310 309 309 308 308 308 308 308 306 305 303 300 298 295 293 290 288 286 283
316 316 317 317 316 315 314 313 312 311 311 311 311 311 311 311 311 311 310 310 309 309 308 307 307 306 306 306 306 306 306 305 304 303 301 299 296 294 291 288 286 284
312 313 314 313 312 311 310 309 308 308 308 307 307 308 308 308 308 308 308 308 307 307 306 306 305 305 305 305 305 305 304 303 301 299 298 296 295 293 291 289 287 285
308 310 310 309 307 306 306 306 306 305 305 305 305 305 305 306 306 306 306 306 306 306 305 304 303 303 303 302 301 301 300 299 298 296 295 293 292 290 289 289 287 285
304 305 305 304 304 304 304 304 304 304 305 305 305 306 306 306 307 307 307 307 306 305 305 304 303 302 301 299 298 297 296 296 295 293 291 290 289 288 287 287 286 285
300 302 302 303 303 303 303 303 304 304 305 305 306 306 307 307 308 308 308 308 307 306 305 304 304 302 300 299 297 295 294 294 292 290 288 287 286 285 284 284 284 283
299 300 301 302 302 302 303 304 304 305 305 305 306 307 308 308 309 309 309 309 308 306 306 305 304 302 301 299 298 296 295 294 292 289 287 285 284 283 283 283 282 282
299 300 300 302 303 304 305 306 306 306 306 307 307 308 309 310 310 310 309 309 308 307 306 305 304 304 303 301 299 298 296 294 290 287 285 284 284 283 282 282 282 282
299 301 302 304 305 306 307 307 307 307 308 309 309 310 310 310 310 310 309 309 309 308 308 306 305 306 306 304 303 301 298 294 291 289 288 287 286 285 284 283 282 281
302 304 306 307 308 308 308 308 308 308 310 310 310 310 310 310 311 311 311 312 311 311 310 308 306 308 309 307 306 304 302 299 296 294 293 291 290 290 289 288 286 285
306 308 309 309 309 309 309 308 309 310 311 311 311 310 311 312 314 314 314 314 314 313 312 309 307 309 311 309 307 306 304 301 299 297 295 294 294 294 293 291 290 289
308 310 310 310 310 309 309 309 310 311 311 311 311 312 314 315 317 316 316 315 315 313 311 309 308 309 311 310 308 308 306 303 299 297 295 294 294 294 293 293 293 293
309 310 310 310 310 309 310 310 311 311 311 312 313 315 317 318 318 317 316 315 314 312 310 309 311 312 313 312 309 308 307 304 299 296 295 295 295 295 296 297 297 297
Height
1526 1527 1527 1527 1527 1526 1525 1524 1523 1522 1521 1520 1519 1518 1517 1516 1516 1515 1514 1514 1513 1512 1511 1510 1509 1508 1508 1507 1505 1504 1503 1502 1502 1501 1500 1500 1499 1498 1497 1497 1497 1496
1526 1527 1527 1527 1527 1526 1525 1525 1524 1523 1521 1520 1519 1518 1517 1516 1515 1515 1514 1513 1512 1511 1510 1509 1508 1507 1506 1505 1504 1503 1502 1501 1500 1499 1498 1498 1497 1496 1495 1494 1494 1493
1526 1527 1527 1527 1527 1526 1525 1525 1524 1522 1521 1520 1519 1517 1516 1515 1514 1514 1513 1513 1512 1511 1509 1508 1507 1506 1505 1504 1503 1502 1500 1499 1498 1497 1496 1495 1495 1494 1493 1492 1491 1491
1526 1527 1527 1527 1527 1526 1526 1525 1524 1522 1521 1520 1519 1517 1515 1514 1513 1512 1512 1511 1511 1510 1509 1507 1506 1505 1503 1502 1501 1500 1499 1498 1496 1495 1494 1493 1493 1491 1490 1490 1489 1488
1527 1527 1527 1527 1526 1526 1525 1524 1523 1522 1521 1520 1519 1517 1515 1513 1512 1511 1510 1509 1509 1508 1507 1506 1505 1503 1502 1501 1499 1498 1497 1496 1494 1493 1491 1491 1490 1489 1488 1487 1486 1485
1525 1525 1525 1525 1525 1525 1524 1523 1522 1520 1519 1518 1517 1516 1514 1513 1511 1510 1509 1508 1507 1506 1505 1503 1502 1501 1500 1498 1497 1496 1495 1494 1492 1491 1489 1488 1487 1487 1486 1485 1483 1482
1524 1524 1524 1523 1523 1523 1522 1521 1520 1519 1517 1516 1515 1514 1513 1511 1510 1509 1508 1507 1506 1505 1504 1502 1500 1499 1497 1495 1494 1493 1492 1491 1490 1489 1487 1486 1485 1483 1483 1482 1480 1479
1523 1523 1522 1522 1521 1520 1520 1519 1518 1517 1515 1514 1513 1512 1511 1509 1508 1507 1506 1504 1503 1502 1501 1500 1498 1497 1496 1494 1492 1490 1489 1488 1487 1485 1484 1483 1482 1480 1479 1479 1477 1475
1522 1521 1521 1520 1519 1519 1518 1517 1515 1514 1513 1511 1510 1509 1508 1507 1505 1504 1503 1501 1500 1499 1498 1497 1495 1494 1493 1492 1490 1489 1486 1485 1483 1482 1480 1478 1477 1476 1475 1475 1473 1471
1520 1520 1519 1518 1517 1516 1515 1514 1513 1511 1510 1508 1507 1506 1504 1503 1502 1500 1499 1497 1496 1495 1493 1493 1491 1490 1489 1488 1487 1486 1484 1482 1481 1479 1477 1474 1472 1471 1470 1469 1468 1466
1519 1518 1517 1516 1515 1513 1512 1511 1510 1508 1507 1506 1504 1502 1501 1500 1498 1497 1495 1493 1491 1489 1488 1487 1486 1485 1483 1482 1481 1480 1478 1477 1475 1474 1472 1471 1469 1467 1465 1464 1462 1461
1517 1516 1515 1514 1513 1511 1510 1508 1507 1505 1504 1502 1501 1499 1497 1496 1494 1493 1491 1489 1487 1485 1483 1481 1479 1478 1476 1475 1474 1472 1471 1470 1468 1467 1465 1464 1463 1462 1461 1460 1458 1456
1515 1514 1513 1512 1510 1509 1507 1506 1504 1503 1501 1499 1498 1496 1494 1492 1490 1489 1487 1485 1483 1481 1479 1476 1474 1472 1470 1468 1466 1464 1463 1461 1460 1459 1457 1456 1456 1455 1455 1454 1453 1452
1513 1512 1510 1509 1508 1506 1505 1503 1502 1500 1498 1496 1494 1492 1490 1488 1486 1484 1482 1481 1478 1476 1474 1472 1470 1468 1465 1462 1459 1457 1455 1453 1452 1450 1449 1448 1447 1446 1446 1445 1444 1444
1510 1509 1507 1506 1505 1503 1502 1500 1499 1497 1495 1493 1491 1489 1487 1485 1482 1480 1478 1476 1474 1471 1469 1467 1464 1462 1460 1457 1454 1452 1449 1447 1445 1443 1441 1439 1438 1437 1436 1436 1435 1434
1507 1506 1504 1503 1502 1500 1499 1497 1495 1493 1491 1490 1488 1486 1483 1481 1478 1476 1473 1471 1468 1466 1464 1462 1459 1457 1455 1452 1450 1447 1444 1442 1439 1437 1435 1433 1430 1428 1427 1426 1426 1425
1504 1503 1501 1500 1499 1497 1496 1493 1491 1489 1487 1485 1483 1481 1479 1476 1473 1471 1468 1466 1463 1460 1458 1456 1454 1452 1450 1447 1444 1442 1439 1436 1433 1430 1428 1425 1423 1421 1418 1416 1416 1415
1501 1499 1498 1497 1495 1493 1491 1489 1487 1484 1482 1480 1477 1475 1472 1470 1467 1465 1462 1460 1457 1454 1451 1449 1447 1445 1443 1440 1438 1436 1433 1430 1427 1423 1420 1417 1415 1413 1410 1408 1407 1406
1497 1495 1494 1493 1491 1489 1487 1484 1482 1479 1477 1474 1471 1469 1466 1463 1461 1458 1456 1453 1450 1447 1444 1441 1439 1437 1435 1432 1430 1427 1426 1423 1420 1416 1412 1409 1407 1405 1403 1401 1399 1397
1493 1492 1490 1489 1487 1485 1482 1480 1477 1474 1472 1469 1466 1463 1460 1457 1454 1452 1449 1446 1443 1440 1437 1433 1431 1429 1426 1424 1421 1419 1417 1415 1411 1407 1404 1401 1398 1396 1395 1393 1391 1390
1490 1488 1486 1484 1482 1479 1477 1474 1472 1469 1466 1464 1461 1458 1454 1451 1448 1445 1442 1439 1436 1433 1429 1426 1424 1422 1419 1416 1413 1411 1409 1407 1403 1399 1395 1392 1390 1388 1387 1385 1384 1382
1486 1484 1482 1479 1476 1474 1471 1469 1466 1463 1461 1458 1455 1452 1449 1446 1443 1440 1436 1432 1429 1426 1422 1418 1415 1415 1412 1409 1407 1405 1402 1399 1395 1391 1388 1384 1381 1380 1379 1377 1376 1375
1481 1478 1476 1473 1471 1468 1465 1463 1460 1458 1455 1452 1449 1446 1443 1440 1436 1433 1429 1425 1422 1419 1415 1410 1407 1407 1406 1403 1401 1399 1396 1392 1389 1385 1381 1378 1374 1373 1372 1370 1369 1369
1475 1473 1471 1468 1466 1463 1460 1458 1455 1453 1450 1447 1443 1440 1436 1433 1429 1425 1421 1419 1415 1412 1410 1405 1401 1401 1400 1397 1395 1394 1391 1387 1384 1380 1376 1373 1370 1367 1366 1365 1363 1363
1470 1468 1466 1463 1461 1458 1456 1453 1450 1448 1445 1442 1438 1434 1429 1425 1422 1418 1414 1412 1410 1407 1405 1401 1397 1395 1395 1392 1389 1388 1386 1383 1380 1376 1372 1369 1366 1363 1361 1360 1359 1357
1466 1463 1461 1459 1456 1454 1451 1449 1446 1443 1440 1436 1432 1428 1423 1419 1415 1412 1408 1406 1405 1403 1400 1398 1394 1390 1389 1387 1385 1383 1382 1379 1376 1372 1368 1365 1362 1359 1356 1355 1354 1353